| time (UTC) | temp F | wind direction | speed MPH | gust MPH | rain 1hr in | rain 24hr in | rain mn in | humidity % | barometer mb |
| 20260510071104 | 60 | 156 | 0.0 | 1.0 | 0.00 | 0.00 | 0.00 | 88 | 1013.0 |
| 20260510070604 | 60 | 156 | 0.0 | 1.0 | 0.00 | 0.00 | 0.00 | 88 | 1013.0 |
| 20260510070105 | 60 | 156 | 0.0 | 1.0 | 0.00 | 0.00 | 0.00 | 88 | 1013.1 |
| 20260510065103 | 59 | 156 | 0.0 | 1.0 | 0.00 | 0.00 | 0.00 | 89 | 1013.2 |
| 20260510064603 | 59 | 156 | 0.0 | 1.0 | 0.00 | 0.00 | 0.00 | 90 | 1013.3 |
| 20260510064104 | 59 | 156 | 0.0 | 1.0 | 0.00 | 0.00 | 0.00 | 90 | 1013.4 |
| 20260510063603 | 59 | 156 | 0.0 | 0.0 | 0.00 | 0.00 | 0.00 | 89 | 1013.6 |
| 20260510063103 | 59 | 156 | 0.0 | 1.0 | 0.00 | 0.00 | 0.00 | 89 | 1013.8 |
| 20260510062103 | 58 | 156 | 0.0 | 1.0 | 0.00 | 0.00 | 0.00 | 88 | 1013.9 |
| 20260510061602 | 58 | 156 | 0.0 | 0.0 | 0.00 | 0.00 | 0.00 | 88 | 1013.9 |
| 20260510061103 | 58 | 156 | 0.0 | 0.0 | 0.00 | 0.00 | 0.00 | 88 | 1013.9 |
| 20260510060603 | 58 | 156 | 0.0 | 0.0 | 0.00 | 0.00 | 0.00 | 88 | 1013.9 |
| 20260510055603 | 58 | 156 | 0.0 | 0.0 | 0.00 | 0.00 | 0.00 | 87 | 1013.8 |
| 20260510055103 | 58 | 156 | 0.0 | 1.0 | 0.00 | 0.00 | 0.00 | 87 | 1013.8 |
| 20260510054602 | 58 | 156 | 0.0 | 1.0 | 0.00 | 0.00 | 0.00 | 87 | 1013.8 |
| 20260510054104 | 58 | 156 | 0.0 | 1.0 | 0.00 | 0.00 | 0.00 | 87 | 1013.6 |
| 20260510053603 | 58 | 156 | 0.0 | 2.0 | 0.00 | 0.00 | 0.00 | 87 | 1013.6 |
| 20260510053102 | 58 | 156 | 0.0 | 2.0 | 0.00 | 0.00 | 0.00 | 86 | 1013.5 |
| 20260510052605 | 58 | 82 | 0.0 | 0.0 | 0.00 | 0.00 | 0.00 | 85 | 1013.5 |
| 20260510051604 | 58 | 82 | 0.0 | 0.0 | 0.00 | 0.00 | 0.00 | 85 | 1013.3 |
| 20260510051059 | 58 | 82 | 0.0 | 0.0 | 0.00 | 0.00 | 0.00 | 84 | 1013.3 |
| 20260510050547 | 58 | 82 | 0.0 | 1.0 | 0.00 | 0.00 | 0.00 | 83 | 1013.3 |
| 20260510050037 | 58 | 82 | 0.0 | 1.0 | 0.00 | 0.00 | 0.00 | 83 | 1013.3 |
| 20260510045537 | 58 | 82 | 0.0 | 3.0 | 0.00 | 0.00 | 0.00 | 84 | 1013.3 |
| 20260510045037 | 58 | 82 | 0.0 | 3.0 | 0.00 | 0.00 | 0.00 | 84 | 1013.3 |
| 20260510044537 | 58 | 116 | 0.0 | 1.0 | 0.00 | 0.00 | 0.00 | 82 | 1013.2 |
| 20260510044038 | 59 | 116 | 0.0 | 0.0 | 0.00 | 0.00 | 0.00 | 82 | 1013.2 |
| 20260510043538 | 59 | 116 | 0.0 | 0.0 | 0.00 | 0.00 | 0.00 | 80 | 1013.1 |
| 20260510043038 | 59 | 116 | 0.0 | 0.0 | 0.00 | 0.00 | 0.00 | 79 | 1013.1 |
| 20260510042538 | 59 | 116 | 0.0 | 0.0 | 0.00 | 0.00 | 0.00 | 78 | 1013.1 |
| 20260510042035 | 59 | 116 | 0.0 | 0.0 | 0.00 | 0.00 | 0.00 | 78 | 1013.1 |
| 20260510041035 | 59 | 116 | 0.0 | 0.0 | 0.00 | 0.00 | 0.00 | 79 | 1013.1 |
| 20260510040532 | 60 | 116 | 0.0 | 0.0 | 0.00 | 0.00 | 0.00 | 78 | 1013.2 |
| 20260510040032 | 60 | 116 | 0.0 | 0.0 | 0.00 | 0.00 | 0.00 | 78 | 1013.2 |
| 20260510035531 | 60 | 116 | 0.0 | 0.0 | 0.00 | 0.00 | 0.00 | 76 | 1013.2 |
| 20260510034531 | 60 | 116 | 0.0 | 0.0 | 0.00 | 0.00 | 0.00 | 77 | 1012.8 |
| 20260510033531 | 60 | 116 | 0.0 | 2.0 | 0.00 | 0.00 | 0.00 | 77 | 1012.5 |
| 20260510033031 | 60 | 116 | 0.0 | 2.0 | 0.00 | 0.00 | 0.00 | 77 | 1012.4 |
| 20260510032531 | 61 | 118 | 0.0 | 1.0 | 0.00 | 0.00 | 0.00 | 77 | 1012.3 |
| 20260510032031 | 61 | 118 | 0.0 | 1.0 | 0.00 | 0.00 | 0.00 | 76 | 1012.3 |
| 20260510031032 | 62 | 118 | 0.0 | 0.0 | 0.00 | 0.00 | 0.00 | 73 | 1012.2 |
| 20260510030531 | 62 | 118 | 0.0 | 1.0 | 0.00 | 0.00 | 0.00 | 73 | 1012.1 |
| 20260510030032 | 62 | 118 | 0.0 | 1.0 | 0.00 | 0.00 | 0.00 | 72 | 1012.1 |
| 20260510025532 | 62 | 118 | 0.0 | 0.0 | 0.00 | 0.00 | 0.00 | 71 | 1011.9 |
| 20260510025032 | 63 | 118 | 0.0 | 0.0 | 0.00 | 0.00 | 0.00 | 71 | 1011.9 |
| 20260510024530 | 64 | 118 | 0.0 | 0.0 | 0.00 | 0.00 | 0.00 | 71 | 1011.9 |
| 20260510024030 | 64 | 118 | 0.0 | 0.0 | 0.00 | 0.00 | 0.00 | 69 | 1011.7 |
| 20260510023523 | 65 | 118 | 0.0 | 0.0 | 0.00 | 0.00 | 0.00 | 66 | 1011.6 |
| 20260510023017 | 65 | 118 | 0.0 | 0.0 | 0.00 | 0.00 | 0.00 | 65 | 1011.5 |
| 20260510022509 | 65 | 118 | 0.0 | 0.0 | 0.00 | 0.00 | 0.00 | 68 | 1011.5 |
| 20260510022010 | 66 | 118 | 0.0 | 0.0 | 0.00 | 0.00 | 0.00 | 69 | 1011.3 |
| 20260510021510 | 66 | 118 | 0.0 | 0.0 | 0.00 | 0.00 | 0.00 | 65 | 1011.2 |
| 20260510020505 | 66 | 117 | 0.0 | 1.0 | 0.00 | 0.00 | 0.00 | 63 | 1010.9 |
| 20260510020005 | 67 | 117 | 0.0 | 0.0 | 0.00 | 0.00 | 0.00 | 66 | 1010.8 |
| 20260510015505 | 67 | 118 | 0.0 | 1.0 | 0.00 | 0.00 | 0.00 | 63 | 1010.7 |
| 20260510015005 | 68 | 118 | 0.0 | 1.0 | 0.00 | 0.00 | 0.00 | 60 | 1010.5 |
| 20260510014505 | 68 | 118 | 0.0 | 1.0 | 0.00 | 0.00 | 0.00 | 58 | 1010.5 |
| 20260510014004 | 69 | 118 | 0.0 | 1.0 | 0.00 | 0.00 | 0.00 | 57 | 1010.4 |
| 20260510013504 | 69 | 118 | 0.0 | 1.0 | 0.00 | 0.00 | 0.00 | 56 | 1010.3 |
| 20260510013004 | 69 | 118 | 0.0 | 1.0 | 0.00 | 0.00 | 0.00 | 55 | 1010.2 |
| 20260510012505 | 70 | 118 | 0.0 | 0.0 | 0.00 | 0.00 | 0.00 | 54 | 1010.2 |
| 20260510011504 | 71 | 118 | 0.0 | 1.0 | 0.00 | 0.00 | 0.00 | 51 | 1010.0 |
| 20260510010504 | 73 | 118 | 0.0 | 1.0 | 0.00 | 0.01 | 0.00 | 51 | 1010.0 |
| 20260510010005 | 73 | 18 | 0.0 | 1.0 | 0.00 | 0.01 | 0.00 | 50 | 1010.0 |
| 20260510005503 | 74 | 17 | 0.0 | 1.0 | 0.00 | 0.01 | 0.00 | 48 | 1009.9 |
| 20260510005004 | 74 | 18 | 0.0 | 1.0 | 0.00 | 0.01 | 0.00 | 49 | 1009.9 |
| 20260510004004 | 75 | 16 | 0.0 | 1.0 | 0.00 | 0.01 | 0.00 | 45 | 1009.8 |
| 20260510003503 | 76 | 16 | 0.0 | 0.0 | 0.00 | 0.03 | 0.00 | 45 | 1009.9 |
| 20260510003003 | 76 | 115 | 0.0 | 1.0 | 0.00 | 0.04 | 0.00 | 46 | 1009.9 |
| 20260510002503 | 77 | 78 | 0.0 | 1.0 | 0.00 | 0.04 | 0.00 | 45 | 1009.9 |
| 20260510002003 | 77 | 77 | 0.0 | 2.0 | 0.00 | 0.04 | 0.00 | 44 | 1009.8 |
| 20260510001502 | 77 | 79 | 0.0 | 3.0 | 0.00 | 0.04 | 0.00 | 43 | 1009.8 |
| 20260510001003 | 78 | 97 | 1.0 | 3.0 | 0.00 | 0.04 | 0.00 | 41 | 1009.9 |
| 20260510000500 | 78 | 78 | 1.0 | 2.0 | 0.00 | 0.04 | 0.00 | 43 | 1009.9 |
| 20260510000003 | 78 | 157 | 0.0 | 2.0 | 0.00 | 0.04 | 0.00 | 41 | 1009.9 |
| 20260509235502 | 78 | 63 | 1.0 | 3.0 | 0.00 | 0.04 | 0.00 | 41 | 1009.9 |
| 20260509235002 | 79 | 96 | 1.0 | 3.0 | 0.00 | 0.04 | 0.00 | 41 | 1009.9 |
| 20260509234502 | 79 | 141 | 1.0 | 3.0 | 0.00 | 0.04 | 0.00 | 40 | 1010.0 |
| 20260509234002 | 79 | 134 | 1.0 | 4.0 | 0.00 | 0.04 | 0.00 | 39 | 1010.0 |
| 20260509233502 | 79 | 173 | 1.0 | 4.0 | 0.00 | 0.04 | 0.00 | 39 | 1010.0 |
| 20260509233003 | 80 | 171 | 1.0 | 3.0 | 0.00 | 0.04 | 0.00 | 42 | 1010.0 |
| 20260509232503 | 80 | 87 | 2.0 | 3.0 | 0.00 | 0.04 | 0.00 | 39 | 1010.0 |
| 20260509231503 | 80 | 266 | 0.0 | 2.0 | 0.00 | 0.04 | 0.00 | 39 | 1010.0 |
| 20260509231002 | 81 | 355 | 0.0 | 2.0 | 0.00 | 0.04 | 0.00 | 40 | 1010.0 |
| 20260509230502 | 81 | 355 | 0.0 | 2.0 | 0.00 | 0.04 | 0.00 | 36 | 1009.9 |
| 20260509225501 | 81 | 23 | 0.0 | 3.0 | 0.00 | 0.04 | 0.00 | 36 | 1010.0 |
| 20260509225001 | 82 | 23 | 0.0 | 3.0 | 0.00 | 0.04 | 0.00 | 36 | 1010.1 |
| 20260509224002 | 82 | 244 | 0.0 | 2.0 | 0.00 | 0.04 | 0.00 | 38 | 1010.1 |
| 20260509223500 | 83 | 244 | 1.0 | 4.0 | 0.00 | 0.04 | 0.00 | 36 | 1010.2 |
| 20260509222501 | 83 | 275 | 1.0 | 3.0 | 0.00 | 0.04 | 0.00 | 31 | 1010.1 |
| 20260509222003 | 83 | 315 | 1.0 | 3.0 | 0.00 | 0.04 | 0.00 | 39 | 1010.1 |
| 20260509221459 | 84 | 135 | 1.0 | 2.0 | 0.00 | 0.04 | 0.00 | 36 | 1010.2 |
| 20260509220959 | 84 | 51 | 1.0 | 2.0 | 0.00 | 0.04 | 0.00 | 32 | 1010.1 |
| 20260509220459 | 84 | 21 | 1.0 | 3.0 | 0.00 | 0.04 | 0.00 | 32 | 1010.1 |
| 20260509215957 | 84 | 247 | 1.0 | 4.0 | 0.00 | 0.04 | 0.00 | 30 | 1010.1 |
| 20260509215456 | 84 | 238 | 1.0 | 4.0 | 0.00 | 0.04 | 0.00 | 33 | 1010.1 |
| 20260509214945 | 84 | 164 | 2.0 | 6.0 | 0.00 | 0.04 | 0.00 | 30 | 1010.1 |
| 20260509214443 | 85 | 109 | 2.0 | 5.0 | 0.00 | 0.04 | 0.00 | 34 | 1010.1 |
| 20260509213435 | 85 | 137 | 2.0 | 5.0 | 0.00 | 0.04 | 0.00 | 30 | 1010.1 |
| 20260509212935 | 85 | 181 | 1.0 | 4.0 | 0.00 | 0.04 | 0.00 | 31 | 1010.2 |
| 20260509212435 | 86 | 227 | 1.0 | 4.0 | 0.00 | 0.04 | 0.00 | 35 | 1010.2 |
| 20260509211936 | 85 | 217 | 1.0 | 3.0 | 0.00 | 0.04 | 0.00 | 34 | 1010.3 |
| 20260509211433 | 85 | 72 | 1.0 | 2.0 | 0.00 | 0.04 | 0.00 | 31 | 1010.4 |
| 20260509210931 | 85 | 211 | 1.0 | 2.0 | 0.00 | 0.04 | 0.00 | 33 | 1010.5 |
| 20260509210431 | 85 | 101 | 1.0 | 3.0 | 0.00 | 0.04 | 0.00 | 32 | 1010.6 |
| 20260509205930 | 85 | 222 | 2.0 | 3.0 | 0.00 | 0.04 | 0.00 | 31 | 1010.6 |
| 20260509205429 | 84 | 281 | 2.0 | 5.0 | 0.00 | 0.04 | 0.00 | 33 | 1010.7 |
| 20260509204929 | 84 | 231 | 2.0 | 5.0 | 0.00 | 0.04 | 0.00 | 33 | 1010.8 |
| 20260509204428 | 85 | 201 | 2.0 | 5.0 | 0.00 | 0.04 | 0.00 | 32 | 1010.8 |
| 20260509203930 | 85 | 234 | 1.0 | 3.0 | 0.00 | 0.04 | 0.00 | 38 | 1010.8 |
| 20260509203429 | 85 | 227 | 1.0 | 5.0 | 0.00 | 0.04 | 0.00 | 36 | 1010.7 |
| 20260509202929 | 84 | 250 | 3.0 | 5.0 | 0.00 | 0.04 | 0.00 | 40 | 1010.7 |
| 20260509201929 | 85 | 234 | 2.0 | 5.0 | 0.00 | 0.04 | 0.00 | 36 | 1010.8 |
| 20260509201429 | 85 | 217 | 2.0 | 5.0 | 0.00 | 0.04 | 0.00 | 35 | 1010.9 |
| 20260509200929 | 85 | 55 | 2.0 | 5.0 | 0.00 | 0.04 | 0.00 | 33 | 1011.1 |
| 20260509200430 | 85 | 339 | 1.0 | 3.0 | 0.00 | 0.04 | 0.00 | 37 | 1010.9 |
| 20260509195929 | 84 | 246 | 1.0 | 3.0 | 0.00 | 0.04 | 0.00 | 38 | 1010.9 |
| 20260509195429 | 84 | 169 | 2.0 | 5.0 | 0.00 | 0.04 | 0.00 | 33 | 1010.9 |
| 20260509194929 | 83 | 144 | 2.0 | 5.0 | 0.00 | 0.04 | 0.00 | 33 | 1011.2 |
| 20260509194429 | 84 | 82 | 1.0 | 4.0 | 0.00 | 0.04 | 0.00 | 34 | 1011.1 |
| 20260509193930 | 84 | 148 | 1.0 | 4.0 | 0.00 | 0.04 | 0.00 | 38 | 1010.9 |
| 20260509193429 | 83 | 47 | 1.0 | 3.0 | 0.00 | 0.04 | 0.00 | 42 | 1011.1 |
| 20260509192930 | 83 | 273 | 1.0 | 5.0 | 0.00 | 0.04 | 0.00 | 41 | 1011.2 |
| 20260509191428 | 83 | 84 | 1.0 | 4.0 | 0.00 | 0.04 | 0.00 | 33 | 1011.4 |
| 20260509190929 | 83 | 286 | 2.0 | 5.0 | 0.00 | 0.04 | 0.00 | 33 | 1011.4 |
| 20260509190430 | 82 | 129 | 2.0 | 5.0 | 0.00 | 0.04 | 0.00 | 36 | 1011.4 |
| 20260509185931 | 82 | 169 | 2.0 | 6.0 | 0.00 | 0.04 | 0.00 | 36 | 1011.5 |
| 20260509185428 | 82 | 95 | 2.0 | 6.0 | 0.00 | 0.04 | 0.00 | 33 | 1011.5 |
| 20260509184929 | 82 | 55 | 2.0 | 3.0 | 0.00 | 0.04 | 0.00 | 33 | 1011.4 |
| 20260509184430 | 82 | 348 | 2.0 | 4.0 | 0.00 | 0.04 | 0.00 | 37 | 1011.5 |
| 20260509183429 | 82 | 136 | 1.0 | 3.0 | 0.00 | 0.04 | 0.00 | 38 | 1011.5 |
| 20260509182929 | 82 | 65 | 1.0 | 3.0 | 0.00 | 0.04 | 0.00 | 37 | 1011.6 |
| 20260509182430 | 82 | 40 | 1.0 | 3.0 | 0.00 | 0.04 | 0.00 | 38 | 1011.6 |
| 20260509181928 | 82 | 93 | 1.0 | 5.0 | 0.00 | 0.04 | 0.00 | 35 | 1011.6 |
| 20260509181429 | 82 | 88 | 1.0 | 5.0 | 0.00 | 0.04 | 0.00 | 39 | 1011.5 |
| 20260509180929 | 82 | 168 | 2.0 | 4.0 | 0.00 | 0.04 | 0.00 | 38 | 1011.6 |
| 20260509175928 | 82 | 0 | 2.0 | 3.0 | 0.00 | 0.04 | 0.00 | 43 | 1011.6 |
| 20260509175429 | 82 | 227 | 1.0 | 3.0 | 0.00 | 0.04 | 0.00 | 40 | 1011.7 |
| 20260509174929 | 81 | 153 | 1.0 | 4.0 | 0.00 | 0.04 | 0.00 | 39 | 1011.7 |
| 20260509174430 | 82 | 242 | 2.0 | 5.0 | 0.00 | 0.04 | 0.00 | 37 | 1011.8 |
| 20260509173930 | 82 | 234 | 1.0 | 5.0 | 0.00 | 0.04 | 0.00 | 40 | 1011.8 |
| 20260509173430 | 82 | 215 | 1.0 | 3.0 | 0.00 | 0.04 | 0.00 | 49 | 1011.8 |
| 20260509172430 | 81 | 176 | 2.0 | 4.0 | 0.00 | 0.04 | 0.00 | 46 | 1011.9 |
| 20260509171429 | 80 | 100 | 1.0 | 3.0 | 0.00 | 0.04 | 0.00 | 51 | 1011.9 |
| 20260509170929 | 80 | 230 | 1.0 | 3.0 | 0.00 | 0.04 | 0.00 | 50 | 1011.9 |
| 20260509170429 | 80 | 238 | 1.0 | 4.0 | 0.00 | 0.04 | 0.00 | 49 | 1011.9 |
| 20260509165929 | 79 | 73 | 1.0 | 4.0 | 0.00 | 0.04 | 0.00 | 48 | 1011.8 |
| 20260509165428 | 79 | 75 | 1.0 | 3.0 | 0.00 | 0.04 | 0.00 | 51 | 1011.8 |
| 20260509164930 | 79 | 229 | 1.0 | 3.0 | 0.00 | 0.04 | 0.00 | 53 | 1011.8 |
| 20260509164429 | 79 | 159 | 1.0 | 3.0 | 0.00 | 0.04 | 0.00 | 53 | 1011.8 |
| 20260509163928 | 78 | 222 | 1.0 | 3.0 | 0.00 | 0.04 | 0.00 | 57 | 1011.9 |
| 20260509163429 | 78 | 69 | 1.0 | 3.0 | 0.00 | 0.04 | 0.00 | 52 | 1012.0 |
| 20260509162929 | 78 | 319 | 1.0 | 6.0 | 0.00 | 0.04 | 0.00 | 56 | 1012.0 |
| 20260509162430 | 78 | 196 | 1.0 | 6.0 | 0.00 | 0.04 | 0.00 | 58 | 1012.0 |
| 20260509161929 | 77 | 241 | 2.0 | 4.0 | 0.00 | 0.04 | 0.00 | 56 | 1012.0 |
| 20260509161429 | 77 | 183 | 1.0 | 4.0 | 0.00 | 0.04 | 0.00 | 57 | 1012.0 |
| 20260509160929 | 77 | 280 | 1.0 | 4.0 | 0.00 | 0.04 | 0.00 | 61 | 1012.1 |
| 20260509160429 | 76 | 91 | 1.0 | 4.0 | 0.00 | 0.04 | 0.00 | 59 | 1012.0 |
| 20260509155929 | 76 | 180 | 1.0 | 4.0 | 0.00 | 0.04 | 0.00 | 64 | 1012.0 |
| 20260509155429 | 75 | 249 | 1.0 | 3.0 | 0.00 | 0.04 | 0.00 | 62 | 1012.0 |
| 20260509154928 | 75 | 268 | 2.0 | 5.0 | 0.00 | 0.04 | 0.00 | 61 | 1012.0 |
| 20260509154429 | 74 | 196 | 2.0 | 5.0 | 0.00 | 0.04 | 0.00 | 62 | 1012.0 |
| 20260509153936 | 74 | 267 | 2.0 | 6.0 | 0.00 | 0.04 | 0.00 | 65 | 1012.1 |
| 20260509153433 | 74 | 200 | 1.0 | 6.0 | 0.00 | 0.04 | 0.00 | 64 | 1012.1 |
| 20260509152931 | 74 | 257 | 2.0 | 5.0 | 0.00 | 0.04 | 0.00 | 70 | 1012.1 |
| 20260509152430 | 73 | 157 | 2.0 | 5.0 | 0.00 | 0.04 | 0.00 | 66 | 1012.1 |
| 20260509151930 | 73 | 218 | 1.0 | 4.0 | 0.00 | 0.04 | 0.00 | 68 | 1012.0 |
| 20260509150429 | 72 | 150 | 1.0 | 4.0 | 0.00 | 0.04 | 0.00 | 72 | 1011.9 |
| 20260509145930 | 71 | 212 | 1.0 | 4.0 | 0.00 | 0.04 | 0.00 | 72 | 1011.9 |
| 20260509144928 | 70 | 198 | 1.0 | 4.0 | 0.00 | 0.04 | 0.00 | 74 | 1012.0 |
| 20260509144429 | 70 | 175 | 1.0 | 4.0 | 0.00 | 0.04 | 0.00 | 74 | 1012.0 |
| 20260509143927 | 69 | 273 | 1.0 | 3.0 | 0.00 | 0.04 | 0.00 | 78 | 1011.9 |
| 20260509142407 | 66 | 152 | 1.0 | 4.0 | 0.00 | 0.04 | 0.00 | 84 | 1011.8 |
| 20260509141908 | 65 | 163 | 1.0 | 3.0 | 0.00 | 0.04 | 0.00 | 87 | 1011.9 |
| 20260509141407 | 64 | 145 | 1.0 | 3.0 | 0.00 | 0.04 | 0.00 | 91 | 1011.9 |
| 20260509140907 | 63 | 167 | 1.0 | 3.0 | 0.00 | 0.04 | 0.00 | 94 | 1011.8 |
| 20260509140405 | 63 | 190 | 1.0 | 3.0 | 0.00 | 0.04 | 0.00 | 95 | 1011.8 |
| 20260509135403 | 61 | 133 | 1.0 | 4.0 | 0.00 | 0.04 | 0.00 | 96 | 1011.6 |
| 20260509134901 | 61 | 183 | 1.0 | 3.0 | 0.00 | 0.04 | 0.00 | 96 | 1011.6 |
| 20260509134401 | 60 | 150 | 1.0 | 4.0 | 0.00 | 0.04 | 0.00 | 97 | 1011.5 |
| 20260509133900 | 60 | 166 | 0.0 | 4.0 | 0.00 | 0.04 | 0.00 | 96 | 1011.6 |
| 20260509132901 | 58 | 213 | 0.0 | 3.0 | 0.00 | 0.04 | 0.00 | 97 | 1011.5 |
| 20260509132400 | 57 | 196 | 0.0 | 1.0 | 0.00 | 0.04 | 0.00 | 97 | 1011.4 |
| 20260509131901 | 56 | 196 | 0.0 | 1.0 | 0.00 | 0.04 | 0.00 | 96 | 1011.3 |
| 20260509131401 | 55 | 196 | 0.0 | 1.0 | 0.00 | 0.04 | 0.00 | 96 | 1011.3 |
| 20260509130354 | 53 | 205 | 0.0 | 1.0 | 0.00 | 0.04 | 0.00 | 96 | 1011.3 |
| 20260509125847 | 52 | 205 | 0.0 | 0.0 | 0.00 | 0.04 | 0.00 | 95 | 1011.4 |
| 20260509125339 | 51 | 205 | 0.0 | 0.0 | 0.00 | 0.04 | 0.00 | 95 | 1011.4 |
| 20260509124837 | 51 | 205 | 0.0 | 0.0 | 0.00 | 0.04 | 0.00 | 95 | 1011.3 |
| 20260509123336 | 50 | 205 | 0.0 | 0.0 | 0.00 | 0.04 | 0.00 | 94 | 1011.3 |
| 20260509122833 | 50 | 205 | 0.0 | 0.0 | 0.00 | 0.04 | 0.00 | 94 | 1011.2 |
| 20260509122333 | 50 | 205 | 0.0 | 0.0 | 0.00 | 0.04 | 0.00 | 94 | 1010.9 |
| 20260509121833 | 50 | 205 | 0.0 | 0.0 | 0.00 | 0.04 | 0.00 | 94 | 1010.9 |
| 20260509120830 | 49 | 205 | 0.0 | 0.0 | 0.00 | 0.04 | 0.00 | 94 | 1010.8 |
| 20260509120330 | 49 | 205 | 0.0 | 0.0 | 0.00 | 0.04 | 0.00 | 94 | 1010.8 |
| 20260509115829 | 49 | 205 | 0.0 | 0.0 | 0.00 | 0.04 | 0.00 | 94 | 1010.8 |
| 20260509115330 | 49 | 205 | 0.0 | 0.0 | 0.00 | 0.04 | 0.00 | 94 | 1010.8 |
| 20260509114829 | 49 | 205 | 0.0 | 0.0 | 0.00 | 0.04 | 0.00 | 93 | 1010.8 |
| 20260509114329 | 49 | 205 | 0.0 | 0.0 | 0.00 | 0.04 | 0.00 | 93 | 1010.7 |
| 20260509113828 | 49 | 205 | 0.0 | 0.0 | 0.00 | 0.04 | 0.00 | 93 | 1010.7 |
| 20260509113329 | 49 | 205 | 0.0 | 0.0 | 0.00 | 0.04 | 0.00 | 93 | 1010.7 |
| 20260509112829 | 49 | 205 | 0.0 | 0.0 | 0.00 | 0.04 | 0.00 | 93 | 1010.7 |
| 20260509111829 | 49 | 205 | 0.0 | 0.0 | 0.00 | 0.04 | 0.00 | 93 | 1010.6 |
| 20260509111330 | 50 | 205 | 0.0 | 1.0 | 0.00 | 0.04 | 0.00 | 93 | 1010.5 |
| 20260509110830 | 50 | 205 | 0.0 | 1.0 | 0.00 | 0.04 | 0.00 | 93 | 1010.4 |
| 20260509105830 | 50 | 205 | 0.0 | 0.0 | 0.00 | 0.04 | 0.00 | 93 | 1010.3 |
| 20260509104331 | 50 | 205 | 0.0 | 0.0 | 0.00 | 0.04 | 0.00 | 93 | 1010.2 |
| 20260509103829 | 50 | 205 | 0.0 | 0.0 | 0.00 | 0.04 | 0.00 | 93 | 1010.2 |
| 20260509102829 | 51 | 205 | 0.0 | 1.0 | 0.00 | 0.04 | 0.00 | 93 | 1010.1 |
| 20260509102329 | 51 | 205 | 0.0 | 1.0 | 0.00 | 0.04 | 0.00 | 93 | 1010.2 |
| 20260509101829 | 51 | 205 | 0.0 | 1.0 | 0.00 | 0.04 | 0.00 | 93 | 1010.2 |
| 20260509100829 | 51 | 205 | 0.0 | 1.0 | 0.00 | 0.04 | 0.00 | 93 | 1010.0 |
| 20260509095829 | 51 | 205 | 0.0 | 0.0 | 0.00 | 0.04 | 0.00 | 93 | 1010.1 |
| 20260509094829 | 51 | 205 | 0.0 | 0.0 | 0.00 | 0.04 | 0.00 | 92 | 1010.2 |
| 20260509093830 | 52 | 205 | 0.0 | 1.0 | 0.00 | 0.04 | 0.00 | 92 | 1010.2 |
| 20260509093329 | 52 | 205 | 0.0 | 1.0 | 0.00 | 0.04 | 0.00 | 92 | 1010.3 |
| 20260509091330 | 53 | 205 | 0.0 | 1.0 | 0.00 | 0.04 | 0.00 | 92 | 1010.5 |
| 20260509090830 | 53 | 205 | 0.0 | 1.0 | 0.00 | 0.04 | 0.00 | 92 | 1010.5 |
| 20260509090330 | 53 | 206 | 0.0 | 1.0 | 0.00 | 0.04 | 0.00 | 92 | 1010.5 |
| 20260509085829 | 53 | 206 | 0.0 | 1.0 | 0.00 | 0.04 | 0.00 | 92 | 1010.5 |
| 20260509085329 | 53 | 206 | 0.0 | 0.0 | 0.00 | 0.04 | 0.00 | 92 | 1010.5 |
| 20260509084829 | 53 | 206 | 0.0 | 1.0 | 0.00 | 0.04 | 0.00 | 92 | 1010.5 |
| 20260509084329 | 53 | 206 | 0.0 | 1.0 | 0.00 | 0.04 | 0.00 | 92 | 1010.5 |
| 20260509083329 | 54 | 206 | 0.0 | 1.0 | 0.00 | 0.04 | 0.00 | 92 | 1010.6 |
| 20260509082829 | 54 | 206 | 0.0 | 0.0 | 0.00 | 0.04 | 0.00 | 92 | 1010.7 |
| 20260509082329 | 54 | 206 | 0.0 | 0.0 | 0.00 | 0.04 | 0.00 | 92 | 1010.8 |
| 20260509081329 | 54 | 206 | 0.0 | 0.0 | 0.00 | 0.04 | 0.00 | 92 | 1010.8 |
| 20260509080829 | 54 | 206 | 0.0 | 0.0 | 0.00 | 0.04 | 0.00 | 92 | 1010.8 |
| 20260509080329 | 54 | 206 | 0.0 | 0.0 | 0.00 | 0.04 | 0.00 | 92 | 1010.8 |
| 20260509075829 | 54 | 206 | 0.0 | 0.0 | 0.00 | 0.04 | 0.00 | 92 | 1010.8 |
| 20260509075328 | 54 | 206 | 0.0 | 0.0 | 0.00 | 0.04 | 0.00 | 91 | 1010.7 |
| 20260509074829 | 54 | 206 | 0.0 | 0.0 | 0.00 | 0.04 | 0.00 | 91 | 1010.8 |
| 20260509074329 | 54 | 206 | 0.0 | 1.0 | 0.00 | 0.04 | 0.00 | 91 | 1010.7 |
| 20260509073831 | 54 | 206 | 0.0 | 1.0 | 0.00 | 0.04 | 0.00 | 91 | 1010.7 |
| 20260509072329 | 54 | 206 | 0.0 | 1.0 | 0.00 | 0.04 | 0.00 | 90 | 1010.6 |
| 20260509071829 | 55 | 206 | 0.0 | 1.0 | 0.00 | 0.04 | 0.00 | 90 | 1010.6 |